Winslow, AZ

6:31 PM MST on February 05, 2016 (GMT -0700)
Winslow-Lindbergh Regional

Weather History for KINW - March, 2013

Change the Weather History Date:

Friday, March 29, 2013

  Actual Average Record
Temperature  
Mean Temperature 56 °F 50 °F  
Max Temperature 75 °F 67 °F 81 °F (2015)
Min Temperature 37 °F 32 °F 15 °F (1944)
Degree Days  
Heating Degree Days 9 15  
Month to date heating degree days 446 529  
Since 1 July heating degree days 3834 4024  
Cooling Degree Days 0 0  
Month to date cooling degree days 0 0  
Year to date cooling degree days 0 0  
Growing Degree Days 5 (Base 50)    
Moisture  
Dew Point 20 °F    
Average Humidity 28    
Maximum Humidity 44    
Minimum Humidity 12    
Precipitation  
Precipitation 0.00 in 0.02 in 0.41 in (1973)
Month to date precipitation 0.34 0.51  
Year to date precipitation 1.48 1.49  
Sea Level Pressure  
Sea Level Pressure 30.06 in    
Wind  
Wind Speed 6 mph (SSW)    
Max Wind Speed 13 mph    
Max Gust Speed 16 mph    
Visibility 10 miles    
Events      
T = Trace of Precipitation, MM = Missing Value Source: NWS Daily Summary

Daily Weather History Graph

Daily Weather History Graph

Search for Another Location

Airport or City:

Trip Planner

Search our weather history database for the weather conditions in past years. The results will help you decide how hot, cold, wet, or windy it might be!

Date:

Astronomy

Mar. 29, 2013 Rise Set
Actual Time 6:13 AM MST 6:42 PM MST
Civil Twilight 5:48 AM MST 7:07 PM MST
Nautical Twilight 5:18 AM MST 7:37 PM MST
Astronomical Twilight 4:47 AM MST 8:07 PM MST
Moon 9:38 PM MST (3/29) 7:31 AM MST (3/29)
Length of Visible Light 13h 19m
Length of Day
12h 28m
Waning Gibbous, 93% of the Moon is Illuminated
Mar 29
Waning Gibbous
Apr 2
Last Quarter
Apr 10
New
Apr 18
First Quarter
Apr 25
Full

Hourly Weather History & Observations

Time (MST) Temp. Windchill Dew Point Humidity Pressure Visibility Wind Dir Wind Speed Gust Speed Precip Events Conditions
12:56 AM 48.9 °F - 19.9 °F 32% 30.03 in 10.0 mi SW 8.1 mph - N/A   Clear
1:56 AM 48.0 °F - 21.0 °F 34% 30.03 in 10.0 mi SSW 3.5 mph - N/A   Clear
2:56 AM 48.9 °F - 21.0 °F 33% 30.03 in 10.0 mi SSW 11.5 mph - N/A   Clear
3:56 AM 45.0 °F 43.5 °F 19.9 °F 37% 30.04 in 10.0 mi ESE 3.5 mph - N/A   Clear
4:56 AM 39.9 °F 35.1 °F 19.0 °F 43% 30.08 in 10.0 mi ESE 6.9 mph - N/A   Clear
5:56 AM 37.9 °F 33.5 °F 18.0 °F 45% 30.12 in 10.0 mi ESE 5.8 mph - N/A   Clear
6:56 AM 39.9 °F 35.8 °F 19.0 °F 43% 30.15 in 10.0 mi ESE 5.8 mph - N/A   Clear
7:56 AM 46.9 °F - 19.0 °F 33% 30.15 in 10.0 mi ESE 9.2 mph - N/A   Clear
8:56 AM 55.0 °F - 21.9 °F 28% 30.14 in 10.0 mi SE 5.8 mph - N/A   Clear
9:56 AM 61.0 °F - 23.0 °F 23% 30.13 in 10.0 mi Variable 3.5 mph - N/A   Clear
10:56 AM 66.0 °F - 23.0 °F 20% 30.09 in 10.0 mi Variable 3.5 mph - N/A   Clear
11:56 AM 69.1 °F - 19.9 °F 15% 30.07 in 10.0 mi West 6.9 mph - N/A   Clear
12:56 PM 72.0 °F - 19.0 °F 13% 30.04 in 10.0 mi West 9.2 mph - N/A   Clear
1:56 PM 73.0 °F - 19.0 °F 13% 30.02 in 10.0 mi WNW 9.2 mph - N/A   Clear
2:56 PM 73.9 °F - 19.0 °F 13% 29.99 in 10.0 mi ENE 3.5 mph - N/A   Clear
3:56 PM 73.9 °F - 18.0 °F 12% 29.98 in 10.0 mi South 3.5 mph - N/A   Clear
4:56 PM 73.0 °F - 19.0 °F 13% 29.99 in 10.0 mi Variable 6.9 mph - N/A   Clear
5:56 PM 72.0 °F - 21.0 °F 15% 30.01 in 10.0 mi NNW 8.1 mph - N/A   Clear
6:56 PM 66.9 °F - 23.0 °F 19% 30.03 in 10.0 mi WNW 8.1 mph - N/A   Clear
7:56 PM 57.0 °F - 21.9 °F 26% 30.06 in 10.0 mi West 5.8 mph - N/A   Clear
8:56 PM 57.0 °F - 24.1 °F 28% 30.06 in 10.0 mi SW 10.4 mph - N/A   Clear
9:56 PM 54.0 °F - 21.0 °F 28% 30.06 in 10.0 mi Calm Calm - N/A   Clear
10:56 PM 54.0 °F - 21.0 °F 28% 30.07 in 10.0 mi Calm Calm - N/A   Clear
11:56 PM 48.0 °F - 21.0 °F 34% 30.07 in 10.0 mi Calm Calm - N/A   Clear